Weather in Pilna

Russia / Nizhny Novgorod Oblast'     55°33′18″N   45°55′10″E
temp.,
°C
wind,
m/s
gust,
m/s
humid.,
%
clouds,
%
prec.,
mm/h
press.,
hPa
HPBL,
m
18 april, sun
sun1800:00+5ene410790 0.0 1023277
03:00+4ne410834 0.0 1023226
06:00+3ne38822 0.0 1023202
09:00+9ene57545 0.0 1022657
12:00+13ene56365 0.0 10221303
15:00+14ene67385 0.0 10221795
18:00+12ene585085 0.0 1022367
21:00+7ene7137470 0.0 1024665
19 april, mon
mon1900:00+5ene61272100 0.0 1025554
03:00+3ene51162100 0.0 1026467
06:00+2ene61270100 0.0 1027597
09:00+4e81151100 0.0 1027844
12:00+6e81139100 0.0 10271344
15:00+8e8113775 0.0 10271563
18:00+6e7114462 0.0 10271335
21:00+4e6144380 0.0 1028630
20 april, tue
tue2000:00+3e6144692 0.0 1028569
03:00+1e613555 0.0 1029410
06:00+1e513595 0.0 1029440
09:00+6ese812420 0.0 1029970
12:00+9ese810310 0.0 10281450
15:00+10ese810290 0.0 10271600
18:00+8ese712355 0.0 10251173
21:00+6ese71439100 0.0 1025767
21 april, wed
wed2100:00+5ese81641100 0.0 1022832
03:00+5se91746100 0.0 1021887
06:00+2ese102081100 2.1 1019738
09:00+2se102085100 4.4 1018880
12:00+2se101990100 3.2 1017870
15:00+3se101788100 3.3 1017839
18:00+3sse91690100 0.1 1017740
21:00+3sse81691100 0.3 1018668
22 april, thu
thu2200:00+4s61294100 0.0 1019518
03:00+4s51095100 0.0 1020344
06:00+4s3895100 0.0 1021254
09:00+7s5983100 0.0 1022421
12:00+11ssw5760100 0.1 10221483
15:00+12ssw575986 0.5 10231312
18:00+11s477193 0.4 1023237
21:00+8s2590100 1.3 1024148